* Astronomy

Members Login
Username 
 
Password 
    Remember Me  
Post Info TOPIC: Asteroid 2012 BH86


L

Posts: 131433
Date:
Asteroid 2012 BH86
Permalink  
 


Orbital elements:
2012 BH86                                                Earth MOID = 0.0031 AU
Epoch 2012 Mar. 14.0 TT = JDT 2456000.5                 MPC
M 339.22203              (2000.0)            P               Q
n   0.66207503     Peri.  249.22568     -0.74382403     +0.66776569
a   1.3037608      Node   332.64495     -0.58779919     -0.67388391
e   0.3893077      Incl.    3.56153     -0.31814765     -0.31617947
P   1.49           H   24.4           G   0.15           U   7

MPEC 2012 - B105

The 39 - 87 metre wide asteroid 2012 BH86 will make a close pass (24.6 lunar distances, 0.0632 AU), travelling at 9.28 km/second, to the Earth-Moon system on the 25th February, 2012 @ 06:48 UT ±04:34.

See more

The Lunar Distance (LD), the distance between Earth and the Moon, equals 384,401 km, (or 0.00256 AU).



__________________
Page 1 of 1  sorted by
 
Quick Reply

Please log in to post quick replies.



Create your own FREE Forum
Report Abuse
Powered by ActiveBoard